Voltar ao catálogo

DELTA 1 DEB

AtivoSSO
NORAD 12203·DEBRIS·🇺🇸 United States

Lançado Mar 5, 1978 de Vandenberg Space Force Base

Loading…

Próximas Passagens (próximas 24 horas)

TLE

AtualizadoSource: Space-Track

Época: Sep 14, 2026, 19:39 UTC

1 12203U 78026AU  26257.81891758  .00000478  00000-0  16285-3 0  9994
2 12203  98.6265 284.1652 0059077 283.1318 250.9396 14.40048499377057

Acompanhe DELTA 1 DEB em tempo real com AllMySat

Download on the App Store